World > North America > United States > Michigan

Hourly Lodi Township, MI Regional Weather

Feedback E-mail the Weather

Quick WX

Lodi Township, MI Weather Maps

°F °C°F °C
Lodi Township Weather Map
UTC Time: 6/27/2022, 17:36
Your Time:

Lodi Township, MI Regional Weather

Expires:202206271800;;283931
ASUS43 KDTX 271710
RWRMI 
MICHIGAN HOURLY REGIONAL WEATHER ROUNDUP
NATIONAL WEATHER SERVICE DETROIT/PONTIAC MI
100 PM EDT MON JUN 27 2022

NOTE: "FAIR" INDICATES FEW OR NO CLOUDS BELOW 12,000 FEET WITH NO
SIGNIFICANT WEATHER AND/OR OBSTRUCTION TO VISIBILITY.


MIZ047>049-052>055-059>063-066>070-074>076-081>083-271800-
SOUTHEAST LOWER MICHIGAN
  
CITY           SKY/WX    TMP DP  RH WIND       PRES   REMARKS
ADRIAN         MOSUNNY   72  44  36 NW17G25   30.18S                  
ALMA           PTSUNNY   71  40  32 W9G17     30.16S                  
ANN ARBOR      MOSUNNY   71  45  39 W14G26    30.16S                  
BAD AXE        CLOUDY    65  47  52 NW13      30.12S                  
CARO           CLOUDY    65  44  47 W10G20    30.15R                  
DETROIT CITY   MOSUNNY   74  43  32 NW12G24   30.14R                  
DETROIT        MOSUNNY   73  44  35 W21G30    30.15S                  
FLINT          PTSUNNY   71  45  39 NW20G30   30.15R                  
GROSSE ILE     PTSUNNY   73  47  39 W9G17     30.15S                  
HILLSDALE      PTSUNNY   70  42  36 W10G18    30.19S                  
HOWELL         MOSUNNY   72  38  30 W13G22    30.17S                  

CITY           SKY/WX    TMP DP  RH WIND       PRES   REMARKS
JACKSON        MOSUNNY   71  44  37 W13G22    30.18S                  
LAMBERTVILLE   MOSUNNY   74  47  37 NW8G17    30.17S                  
LANSING        MOSUNNY   72  44  36 NW18      30.17S                  
LAPEER         MOSUNNY   69  42  37 NW12G26   30.14R                  
MASON          PTSUNNY   71  43  36 W14G21    30.17S                  
MONROE         PTSUNNY   74  48  40 W12G23    30.15F                  
PONTIAC        MOSUNNY   72  40  31 W17G31    30.15R                  
PORT HOPE        N/A     66  31  27 W12G20    30.10S                  
PORT HURON     MOSUNNY   70  43  37 W13G22    30.12S                  
TRI CITIES     CLOUDY    66  46  48 W10G20    30.16R                  
MIDLAND        CLOUDY    68  43  40 W14G20    30.14S                  
TROY           MOSUNNY   72  32  23 W17G25    30.16S                  
SAGINAW HB     CLOUDY    67  44  43 W13G18    30.15S                  
$$

SKY/WX - Weather  TMP - Temperature  DP - Dew Point  RH - Humidity
WIND - Wind Direction/Speed PRES - Barometric Pressure VSB - Visibility
WCI - Wind Chill Index E13G22 Wind - East Wind 13 mph/Gusts of 22 mph

Trending Headlines

Lodi Township Radar Loop



Lodi Township Quick Facts


National Two Day Weather Forecast


E-mail the Lodi Township Weather Forecast

Voice your opinion or tell us about page issues...